sat.trackr.live / text

‹ back to catalog

SITRO-AIS 16

NORAD 61737 · 2024-199C

PAYLOAD ACTIVE UNKNOWN

§ Identity

Operator
Country
CIS
Launch date
2024-11-04
Launch site
VOSTO
Launch vehicle
Mass (kg)
RCS (m²)

External: N2YO · Heavens-Above · Gunter

§ Orbital elements

Epoch: 2026-05-25T04:06:56.418048Z

Period
96.16 min
Inclination
97.3253°
Eccentricity
0.0008160
Mean motion
14.97459276 rev/d
Perigee alt
569.1 km
Apogee alt
580.4 km
Semi-major
6,952.9 km
B*
2.7245e-4
RAAN
345.9361°
Arg perigee
132.9467°
Mean anomaly
227.2442°
Rev number
12,837

§ Raw data

SITRO-AIS 161 61737U 24199C   26145.17148632  .00003121  00000+0  27245-3 0  99982 61737  97.3253 345.9361 0008160 132.9467 227.2442 14.97459276128371

JSON: /api/v1/satellites/61737 · /tle

For live sub-satellite position, see the globe view (requires WebGL).

§ Visibility from observer

Set your observer location to see the next 7 days of passes ≥ 10°. The values pass through the URL so the page stays shareable.

No JS? Fill the form by hand. The geolocation button needs JavaScript.

§ Radio — SatNOGS DB

ModeDescriptionDownlinkUplink
GMSK USP Mode U - GMSK2k4 - USP 401.075 MHz

1 transmitter · refreshed weekly from db.satnogs.org